STARLINK-11164, 60120

Orbit data source: Space-Track

STARLINK-11164, 60120 is a payload satellite owned by SpaceX/Seattle (US) in LEO that was launched on Mon, 24 Jun 2024 UTC via an FALCON 9 launch vehicle from the Air Force Western Test Range (AFWTR). Payload-class satellites include a variety of spacecraft equipped with specific instruments for various scientific and technological missions. These include communications satellites like Starlink; space stations such as the ISS; scientific satellites like the Hubble; Earth observation satellites from companies like Planet Labs, Umbra, and HawkEye 360; GPS; miniature CubeSats for education and research; and military/defense satellites.

Loading next visibility...
Identifier
60120, 2024-118H
Orbit
LEO
Last TLE update
5 hours ago
Origin
Manufacturer
SpaceX/Seattle
Mission
Operational Commercial Communications
Bus & Motor
STARLINK V2M, Unknown motor
Mass
730 kg wet, ~700 kg dry
Launch date (UTC)
2024-06-24 (1 year ago)
Launch vehicle
FALCON 9
Launch site
Air Force Western Test Range (AFWTR)
Object type
Payload
Rocket body
Debris
Shape & HBR
Box + 2 Pan, 29 m
Radar Cross Section
33.884 m², Large (>1 m²)

Expand to show TLE details & history

TLE from 5 hours ago
0 STARLINK-11164
1 60120U 24118H   25182.82754486 -.00000677  00000-0 -73630-6 0  9994
2 60120  53.1587  17.8413 0000644  76.2802 283.8288 15.69716432 59707
Epoch: 2025-07-01T19:51Z
TLE epoch observation values (Epoch: 2025-07-01T19:51:39.875Z)
Latitude
-0.00001°
Longitude
159.80774°
Altitude
360.52 km
Speed
7.694 km/s
True Right ascension
01h 11m 21s
True Declination
0° 00' 00"
Sunlit
Object was in daylight at epoch
Visualization orbit readout
Latitude
-7.91223°
Longitude
-15.35639°
Altitude
362.155 km
Speed
7.693 km/s
Apparent Right ascension
14h 58m 44s
Apparent Declination
-68° 23' 03"
Sunlit
Object is in daylight
Visualization observer readout
Local Sidereal Time
12:55:53
Azimuth
168.396° S
Elevation
-20.709°
Doppler factor
1
Orbital elements
Apogee altitude
360.403 km
Perigee altitude
359.535 km
Semi-major axis
6,738.106 km
Eccentricity
0.00006
Inclination
53.1587°
RAAN
17.8413°
Arg. of periapsis
76.2802°
True anomaly
Unknown
Mean anomaly
283.8288°
Eccentric anomaly
Unknown
Mean motion
3.92407 °/min
Orbital period
91.74 mins
BSTAR
-7.363e-7
Loading maneuver chart data...
Loading SW <> Apogee altitude chart data...
Loading historical data...
Loading historical data...
Loading historical data...
Loading historical data...
Loading historical data...
Loading historical data...
Loading historical data...

STARLINK-11164 Visibility forecast

Observer location: undefined°, undefined°

Span
Click to sort rows by Start time (UTC) header in descending order
Start Az.
Max El. time (UTC)
Max El. Az.
Max El.
End time (UTC)
End Az.
5 mins2025-07-02 15:55:00.467Z238.848° WSW2025-07-02 15:57:00.467Z266.619° W38.616°2025-07-02 16:00:00.467Z44.038° NE
4 mins2025-07-02 22:21:00.467Z320.741° NNW2025-07-02 22:22:00.467Z358.46° N42.678°2025-07-02 22:25:00.467Z124.345° SE
|